Location: Unspecified
(0.0000°N, 0.0000°E)
Time: 03:29:17
(UTC+00:00)

Cosmos 2058 - Pass Details

Date: 27 April 2019
Orbit: 561 x 585 km, 82.5° (Epoch: 20 May)

Event Time Altitude Azimuth Distance (km) Brightness Sun altitude
Rises 18:39:49 0° 350° (N) 2,734 6.7 -10.2°
Reaches altitude 10° 18:42:00 10° 346° (NNW) 1,842 5.9 -10.8°
Maximum altitude 18:45:59 60° 266° (W) 647 3.5 -11.7°
Drops below altitude 10° 18:50:01 10° 186° (S) 1,854 5.4 -12.7°
Sets 18:52:13 0° 182° (S) 2,755 6.3 -13.2°
